COSMOS 2230

Satellite information

Favourite Embed

Satellite Type and Status

PAYLOADIN ORBIT

Key statistics

Satellite COSMOS 2230 at a glance.

Uptime

11978

Days in orbit

Revolutions

≈ 13.7

Per day

Orbit

LEO

Low Earth Orbit

Inclination

82.9

Latest

Satellite identification and parameters

Extended collection of information and parameters for COSMOS 2230.

Object identification

Identified? True

Debris? False

Object name: COSMOS 2230

International designator: 1993-001A

Object number (NORAD): 22307

Object ID (CCSDS): 22307

Country: COMMONWEALTH OF INDEPENDENT STATES (CIS)

Current information (Y/N): Y

RCS size: LARGE

Orbital parameters

Period: 104.814 minutes

Inclination: 82.9375 deg

SMA: 7363.885 km

Apoapsis: 1004.751 km

Periapsis: 966.749 km

RAAN: 99.8455 deg

Eccentricy: 0.00258029

Argument of periapsis: 90.2464 deg

Mean anomaly: 332.6751 deg

Mean motion: 13.73859438 rev/day

Mean motion (dot): 0.0000012 rev/day2

B* drag term: 0.00011197473 1/REarth

Two-line elements (TLE)

Creation date: Oct. 28, 2025, 7:11 p.m.

Reference frame: TEME

Reference center: EARTH

Epoch: Oct. 28, 2025, 12:27 p.m. UTC

TLE line 0: 0 COSMOS 2230

TLE line 1: 1 22307U 93001A 25301.51918343 .00000120 00000-0 11197-3 0 9997

TLE line 2: 2 22307 82.9375 99.8455 0025803 90.2464 332.6751 13.73859438635274

Live tracking on map

Real-time ground track for satellite COSMOS 2230.

In-orbit conjunctions

A list of the most updated potential collisions computed for object COSMOS 2230.

Target Orbit TCA Probability of collision Miss distance Type
COSMOS 1275 DEB LEO 2025-09-11 20:34:18 0.1715821 4.0 (m) DEBRIS
FENGYUN 1C DEB SSO 2024-11-03 22:24:41 0.0001659937 437.0 (m) DEBRIS
THOR ABLESTAR DEB LEO 2024-08-21 06:07:58 0.0001270134 350.0 (m) DEBRIS
SL-16 DEB LEO 2024-06-18 23:53:55 0.0001244579 415.0 (m) DEBRIS

Associated space launch

Civilian navigation satellite equivalent to the purely military Parus

COSMOS 2230 was lifted into orbit during the mission ‘Kosmos-3M | Tsikada 19’, on board a Kosmos-3M space rocket.

The launch took place on Jan. 12, 1993, 11:10 a.m. from 133/3 (133L).

For more information about the launch, click the button.

Launch to space Kosmos-3M | Tsikada 19
Kosmos-3M | Tsikada 19

Agency: N/A

Status: Launch Successful

Launch date: Jan. 12, 1993, 11:10 a.m. UTC

Rocket: Kosmos-3M

Launch pad: 133/3 (133L)

Location: Plesetsk Cosmodrome, Russian Federation

...

Latest news about this satellite

There are no fresh news available about this satellite. Check back as we update our databases every day.


Newsletter sign-up

Weekly statistics, charts and insights to help you stay on top of the space industry.